Regional Weather Roundup
Issued by NWS Cleveland, OH

Home | Current Version | Previous Version | Graphics & Text | Print | Product List | Glossary On
Versions: 1 2 3 4 5 6 7 8 9 10 11 12 13 14 15 16 17 18 19 20 21 22 23 24 25 26 27 28 29 30 31 32 33 34 35 36 37 38 39 40 41 42 43 44 45 46 47 48 49 50
000
ASUS41 KCLE 242100
RWRCLE
OHIO REGIONAL WEATHER ROUNDUP
NATIONAL WEATHER SERVICE WILMINGTON, OH
500 PM EDT MON JUL 24 2017

NOTE: "FAIR" INDICATES FEW OR NO CLOUDS BELOW 12,000 FEET WITH NO
SIGNIFICANT WEATHER AND/OR OBSTRUCTIONS TO VISIBILITY.

OHZ001>008-015>018-024>027-034-035-043-044-242200-
   NORTHWEST OHIO

CITY           SKY/WX    TMP DP  RH WIND       PRES   REMARKS
DEFIANCE       CLOUDY   N/A N/A N/A N8        30.04R
FINDLAY        CLOUDY    72  56  57 N14       30.01R
TOLEDO EXPRESS CLOUDY    69  58  67 N12       30.03R
TOLEDO EXEC    CLOUDY    71  59  65 NW8       30.03R
LIMA           PTSUNNY   72  59  63 N13       30.01S
$$

OHZ009>014-019>023-028>033-038-089-242200-
   NORTHEAST OHIO

CITY           SKY/WX    TMP DP  RH WIND       PRES   REMARKS
CLE-HOPKINS    CLOUDY    70  59  68 N12G21    30.00R
CLE-LAKEFRONT  CLOUDY    70  58  65 NW17      29.97R
CUY CO. ARPT   CLOUDY    72  61  68 N12G21    29.98R
LORAIN-ELYRIA  CLOUDY    68  54  60 N9        30.00R
ASHTABULA      CLOUDY    68  60  75 NW14G24   29.95R
AKRON-CANTON   PTSUNNY   73  57  57 NW15G23   29.96R
WOOSTER        NOT AVBL
MANSFIELD      CLOUDY    70  60  70 N14G22    30.00R
YOUNGSTOWN     PTSUNNY   69  58  67 NW12      29.95R
$$

OHZ042-051>053-060>062-070>072-077>081-242200-
  SOUTHWEST OHIO

CITY           SKY/WX    TMP DP  RH WIND       PRES   REMARKS
CINC-COVINGTON PTSUNNY   85  67  54 NW12      29.96S
CINC-LUNKEN    FAIR      85  67  54 N9        29.94S
HAMILTON       PTSUNNY   84  68  58 N9        29.96S
DAYTON         NOT AVBL
WRIGHT-PAT AFB PTSUNNY   80  66  62 N15       29.98R
DAYTON GENERAL FAIR      80  65  59 N13       29.97R
WILMINGTON     FAIR      81  68  64 N15       29.96R
$$

OHZ036-037-039>041-045>050-054>059-063>069-073>076-082>088-242200-
  CENTRAL AND SOUTHEAST OHIO

CITY           SKY/WX    TMP DP  RH WIND       PRES   REMARKS
COLUMBUS       PTSUNNY   78  65  63 N17       29.96R
OSU AIRPORT    PTSUNNY   76  65  68 N14       29.98R
BOLTON FIELD   PTSUNNY   77  66  69 NW16G24   29.97S
RICKENBACK AFB NOT AVBL
NEWARK         FAIR      78  61  55 NW14G24   29.96R
MARION         PTSUNNY   74  57  55 NW14      30.00S
LANCASTER      FAIR      79  66  64 NW14G21   29.96R
ZANESVILLE     FAIR      79  65  62 NW14G25   29.93R
NEW PHILLY     FAIR      76  63  64 NW15G23   29.95R
$$



USA.gov is the U.S. government's official web portal to all federal, state and local government web resources and services.